Location: Nashville
(36.1660°N, 86.7840°W)
Time: 08:36:20
(UTC-05:00)

EO-88 - Pass Details

Date: 23 May 2022
Orbit: 457 x 464 km, 97.3° (Epoch: 27 June)

Event Time Altitude Azimuth Distance (km) Brightness Sun altitude
Exits shadow 23:23:34 10° 289° (WNW) 1,586 ? -30.0°
Drops below altitude 10° 23:23:44 10° 291° (WNW) 1,615 ? -30.0°
Sets 23:26:55 0° 324° (NW) 2,500 ? -30.2°
